Regional Weather Roundup
Issued by NWS

Home | Current Version | Previous Version | Graphics & Text | Print | Product List | Glossary Off
Versions: 1 2 3 4 5 6 7 8 9 10 11 12 13 14 15 16 17 18 19 20 21 22 23 24 25 26 27 28 29 30 31 32 33 34 35 36 37 38 39 40 41 42 43 44 45 46 47 48 49 50

000
ASUS43 KMKX 270411
RWRWI

WISCONSIN REGIONAL WEATHER ROUNDUP
NATIONAL WEATHER SERVICE MILWAUKEE/SULLIVAN WI
1000 PM CST WED NOV 26 2014

NOTE: "FAIR" INDICATES FEW OR NO CLOUDS BELOW 12,000 FEET WITH NO
SIGNIFICANT WEATHER AND/OR OBSTRUCTIONS TO VISIBILITY.

WIZ001-002-006>008-014>016-023>028-270500-
NORTHWEST WISCONSIN

CITY           SKY/WX    TMP DP  RH WIND       PRES   REMARKS
SUPERIOR ARPT  CLEAR      6  -2  70 NW7       30.41R WCI  -6
ASHLAND        CLOUDY    14   9  80 NW7       30.34R WCI   4
HAYWARD        CLOUDY    12   5  73 N7        30.30R WCI   1
SIREN          MOCLDY    12   0  60 N9        30.35R WCI  -1
CUMBERLAND     CLOUDY    14   9  79 N14       30.29R WCI  -1
RICE LAKE      CLOUDY    17  10  73 N9G16     30.31R WCI   5
CHETEK         CLOUDY    17  11  76 NW5       30.29R WCI  10
LADYSMITH      LGT SNOW  18  14  83 NW12      30.27R WCI   6
EAU CLAIRE     CLOUDY    20  14  77 N8        30.28R WCI  10
MENOMONIE      CLOUDY    21  14  75 NW12      30.29R WCI   9
NEW RICHMOND   CLOUDY    17   9  71 N16       30.33R WCI   1
OSCEOLA        CLOUDY    16   7  68 NW15      30.37R WCI   1
$$

WIZ003>005-009-010-017-018-270500-
NORTH CENTRAL WISCONSIN

CITY           SKY/WX    TMP DP  RH WIND       PRES   REMARKS
MANITOWISH WTR LGT SNOW  17  15  90 N3        30.18R
ARBOR VITAE    LGT SNOW  19  16  88 N8        30.16S WCI   9
WOODRUFF       LGT SNOW  19  16  88 N8        30.16S WCI   9
RHINELANDER    CLOUDY    18  13  80 N8        30.16R WCI   8
EAGLE RIVER    FLURRIES  19  14  80 N8G16     30.15R WCI   9
LAND O LAKES   LGT SNOW  18  14  85 N13       30.16R WCI   4
PHILLIPS       LGT SNOW  17  13  87 NW9       30.20R WCI   5
TOMAHAWK       CLOUDY    19  15  86 NW8       30.18R WCI   8
MEDFORD        CLOUDY    19  15  83 NW8       30.19R WCI   9
MERRILL        CLOUDY    20  16  83 NW9       30.17S WCI  10
$$

WIZ029-030-035-036-043>047-270500-
CENTRAL WISCONSIN

CITY           SKY/WX    TMP DP  RH WIND       PRES   REMARKS
WAUSAU         MOCLDY    21  16  81 NW9       30.17R WCI  11
MOSINEE        PTCLDY    19  19 100 NW10      30.18R WCI   8
MARSHFIELD     CLOUDY    23  18  81 NW13      30.19R WCI  11
STEVENS POINT  MOCLDY    20  18  92 CALM      30.19R
WAUPACA        LGT SNOW  24  21  90 W3        30.18F
WAUTOMA        CLOUDY    22  19  88 W6        30.20S WCI  15
WISC RAPIDS    CLOUDY    23  18  81 NW7       30.22R WCI  15
CAMP DOUGLAS   FLURRIES  23  23 100 NW9       30.22R WCI  13
$$

WIZ011>013-019>022-031-037>040-048>050-270500-
NORTHEAST WISCONSIN

CITY           SKY/WX    TMP DP  RH WIND       PRES   REMARKS
ANTIGO         CLOUDY    19  17  90 NW10      30.14R WCI   8
SHAWANO        CLOUDY    24  20  88 CALM      30.18R
OCONTO         CLOUDY    20  19  95 W3        30.17S
STURGEON BAY   CLOUDY    25  19  80 W6        30.16S WCI  18
GREEN BAY      LGT SNOW  21  18  88 W7        30.18S FOG     WCI  12
MANITOWOC      PTCLDY    17  15  92 NW3       30.18S
APPLETON       LGT SNOW  18  18 100 W9        30.17S WCI   6
CLINTONVILLE   CLOUDY    21  19  93 W3        30.17S
OSHKOSH        MOCLDY    18  14  84 MISG      30.18S FOG
$$

WIZ032>034-041-042-053>061-270500-
SOUTHWEST WISCONSIN

CITY           SKY/WX    TMP DP  RH WIND       PRES   REMARKS
LA CROSSE      CLOUDY    26  21  81 NW9       30.27R WCI  17
SPARTA         PTCLDY    23  20  89 NW5       30.25R WCI  17
VIROQUA        CLOUDY    22  22 100 NW9       30.21R WCI  12
BOSCOBEL       LGT SNOW  21  18  88 CALM      30.25S FOG
PRAIRIE DU CHI FLURRIES  26  22  86 NW6       30.26R WCI  19
PLATTEVILLE    PTCLDY    20  18  92 CALM      30.22S
$$

WIZ056-057-062-063-064-067-068-270500-
SOUTH CENTRAL WISCONSIN

CITY           SKY/WX    TMP DP  RH WIND       PRES   REMARKS
REEDSBURG      LGT SNOW  18  16  95 NW5       30.21S WCI  11
BARABOO/DELLS  PTCLDY    15  14  94 W3        30.20R FOG
LONE ROCK      CLOUDY    19  13  77 W5        30.23S HAZE    WCI  12
MINERAL POINT  PTCLDY    21  18  86 CALM      30.19S FOG
MADISON        PTCLDY    15  12  88 CALM      30.20S FOG
MIDDLETON      MOCLDY    15  12  88 CALM      30.20S
WATERTOWN      PTCLDY    16  16  99 CALM      30.19S FOG
MONROE         PTCLDY    19  18  93 CALM      30.19S FOG
JANESVILLE     PTCLDY    19  16  86 NW5       30.21R FOG     WCI  13
$$

WIZ051-052-058>065-066-070>072-270500-
SOUTHEAST WISCONSIN

CITY           SKY/WX    TMP DP  RH WIND       PRES   REMARKS
MILWAUKEE      MOCLDY    25  18  74 NW13      30.18R WCI  14
WAUKESHA       PTCLDY    19  18  93 W6        30.19R FOG     WCI  11
MILWAUKEE/TIMM PTCLDY    21  18  86 NW7       30.19R WCI  13
RACINE         CLOUDY    27  20  75 NW9       30.18S WCI  18
BURLINGTON     PTCLDY    19  17  89 NW14      30.18R WCI   6
KENOSHA        CLOUDY    26  21  81 NW10      30.16S HAZE    WCI  16
FOND DU LAC    CLEAR     18  14  84 SW5       30.19R WCI  11
SHEBOYGAN      PTCLDY    18  15  88 W7        30.18R FOG     WCI   9
WEST BEND      CLEAR     19  18  93 W5        30.18S FOG     WCI  13
JUNEAU         PTCLDY    16  15  94 CALM      30.21R FOG
$$

LSZ147-162-270500-
LAKE SUPERIOR

STATION/POSITION TIME  TEMP    WIND        PRES    WAVE
                       AIR SEA DIR/SP/G            HT/PER
                 (UTC) (F)     (DEG/KT/KT) (MB)    (FT/S)
DEVILS ISLAND    0400   13     340/ 18/ 21 1029.1R
PORT WING        0300   15     340/ 15/ 20 1028.1R
SAXON HARBOR     0300   21     340/ 17/ 21 1025.4
$$

LMZ867-665-643>646-270500-
LAKE MICHIGAN

STATION/POSITION TIME  TEMP    WIND        PRES    WAVE
                       AIR SEA DIR/SP/G            HT/PER
                 (UTC) (F)     (DEG/KT/KT) (MB)    (FT/S)
CHAMBERS ISLAND  0300   26     270/  4/  8 1021.3S
N MID LAKE BUOY  0350   28 42  320/ 12/ 16 1021.4S   1/ 3
NORTHPORT PIER   0402   27     320/ 10/ 17 1021.0S
SISTER BAY       0213          330/  8/ 11   N/A
KEWAUNEE LAKESHO 0300   19     300/  3/  6 1020.7R
SHEBOYGAN LAKESH 0400   21 36  280/  8/  9 1023.3S
PORT WASHINGTON  0300   22     300/  8/ 15 1022.4R
MILWAUKEE LAKESH 0300   26     310/ 11/ 14   N/A
S MID LAKE BUOY  0350   32 42  260/  2/  4 1021.7R   0
KENOSHA   LAKESH 0400   27     310/ 10/ 12 1021.3R
$$

TC  - TEMPERATURE IN CELSIUS
VSB - VISIBILITY IN STATUTE MILES
WCI - WIND CHILL INDEX
HX  - HEAT INDEX




USA.gov is the U.S. government's official web portal to all federal, state and local government web resources and services.